Find Starlink 31000

NORAD ID: 58488 Int'l Des: 2023-186 Owner: SPXS Country: US Constellation: starlink operational
LEOCIRCULAR

Live Position

Loading 3D Globe...

About Starlink 31000

Description loading...

Upcoming Passes

Passes for default location (London). Set your location on the main map for personalized predictions.

Altitude History

Loading altitude history...

Two-Line Element Set

1 58488U 23186R 26122.35578347 -.00000346 00000-0 -30521-5 0 9999
2 58488 43.0015 120.5777 0000820 272.1604 87.9154 15.27578551134096
Epoch: May 2, 2026 • Age: 8 hours

Current Status

Altitude 493.6 km
Velocity 7.62 km/s
Sub-Earth Point -37.60°S, 38.66°W
Launch Date Dec 3, 2023
Age 2.4 years
Type internet

Technical Details

Classification Payload
Mass 730.00 kg
Dry Mass 700.00 kg
Total Mass 730.00 kg
Length 0.30 m
Diameter 4.10 m
Span 29.00 m
Shape Box + pan
Manufacturer SPXS
Bus Type Starlink V2M
Phase Status In Orbit
Owner/State SPXS/US

Most Searched